Time,TemperatureF,DewpointF,PressureIn,WindDirection,WindDirectionDegrees,WindSpeedMPH,WindSpeedGustMPH,Humidity,HourlyPrecipIn,Conditions,Clouds,dailyrainin,SoftwareType,DateUTC
2013-05-14 00:00:00,68.6,57.6,29.94,SSW,192,0.0,4.0,68,0.00,,---,0.00,VWS V14.01,2013-05-14 05:00:00,
2013-05-14 00:02:00,68.5,57.5,29.94,WSW,242,1.0,4.0,68,0.00,,---,0.00,VWS V14.01,2013-05-14 05:02:00,
2013-05-14 00:07:00,68.5,57.5,29.94,SW,221,0.0,5.0,68,0.00,,---,0.00,VWS V14.01,2013-05-14 05:07:00,
2013-05-14 00:10:00,68.5,57.5,29.94,SW,221,0.0,5.0,68,0.00,,---,0.00,VWS V14.01,2013-05-14 05:10:00,
2013-05-14 00:12:00,68.5,57.5,29.94,SE,142,2.0,4.0,68,0.00,,---,0.00,VWS V14.01,2013-05-14 05:12:00,
2013-05-14 00:17:00,68.5,57.5,29.94,SW,218,2.0,5.0,68,0.00,,---,0.00,VWS V14.01,2013-05-14 05:17:00,
2013-05-14 00:20:00,68.5,57.5,29.94,SSW,210,3.0,5.0,68,0.00,,---,0.00,VWS V14.01,2013-05-14 05:20:00,
2013-05-14 00:22:00,68.5,57.5,29.94,SW,236,3.0,7.0,68,0.00,,---,0.00,VWS V14.01,2013-05-14 05:22:00,
2013-05-14 00:27:00,68.5,57.5,29.93,SSE,159,0.0,7.0,68,0.00,,---,0.00,VWS V14.01,2013-05-14 05:27:00,
2013-05-14 00:30:00,68.5,57.5,29.94,SSE,159,2.0,7.0,68,0.00,,---,0.00,VWS V14.01,2013-05-14 05:30:00,
2013-05-14 00:32:00,68.5,57.5,29.94,South,177,2.0,4.0,68,0.00,,---,0.00,VWS V14.01,2013-05-14 05:32:00,
2013-05-14 00:37:00,68.5,57.5,29.93,ENE,71,0.0,4.0,68,0.00,,---,0.00,VWS V14.01,2013-05-14 05:37:00,
2013-05-14 00:40:00,68.5,57.5,29.93,ENE,71,0.0,4.0,68,0.00,,---,0.00,VWS V14.01,2013-05-14 05:40:00,
2013-05-14 00:42:00,68.5,57.5,29.93,South,169,0.0,4.0,68,0.00,,---,0.00,VWS V14.01,2013-05-14 05:42:00,
2013-05-14 00:47:00,68.4,57.4,29.93,South,173,0.0,4.0,68,0.00,,---,0.00,VWS V14.01,2013-05-14 05:47:00,
2013-05-14 00:50:00,68.4,57.4,29.93,South,188,0.0,4.0,68,0.00,,---,0.00,VWS V14.01,2013-05-14 05:50:00,
2013-05-14 00:52:00,68.3,57.3,29.93,WSW,238,0.0,4.0,68,0.00,,---,0.00,VWS V14.01,2013-05-14 05:52:00,
2013-05-14 00:57:00,68.2,57.7,29.93,WSW,238,0.0,4.0,69,0.00,,---,0.00,VWS V14.01,2013-05-14 05:57:00,
2013-05-14 01:00:00,68.1,57.6,29.93,WSW,238,0.0,4.0,69,0.00,,---,0.00,VWS V14.01,2013-05-14 06:00:00,
2013-05-14 01:02:00,68.0,57.5,29.93,South,189,0.0,4.0,69,0.00,,---,0.00,VWS V14.01,2013-05-14 06:02:00,
2013-05-14 01:07:00,67.9,57.4,29.93,South,181,1.0,4.0,69,0.00,,---,0.00,VWS V14.01,2013-05-14 06:07:00,
2013-05-14 01:10:00,67.9,57.4,29.93,South,182,2.0,4.0,69,0.00,,---,0.00,VWS V14.01,2013-05-14 06:10:00,
2013-05-14 01:12:00,67.9,57.4,29.92,WSW,251,0.0,3.0,69,0.00,,---,0.00,VWS V14.01,2013-05-14 06:12:00,
2013-05-14 01:17:00,67.8,57.3,29.92,WSW,251,0.0,3.0,69,0.00,,---,0.00,VWS V14.01,2013-05-14 06:17:00,
2013-05-14 01:20:00,67.7,57.2,29.92,WSW,251,1.0,3.0,69,0.00,,---,0.00,VWS V14.01,2013-05-14 06:20:00,
2013-05-14 01:22:00,67.7,57.2,29.92,SSW,204,0.0,4.0,69,0.00,,---,0.00,VWS V14.01,2013-05-14 06:22:00,
2013-05-14 01:27:00,67.6,57.5,29.91,SSW,200,1.0,4.0,70,0.00,,---,0.00,VWS V14.01,2013-05-14 06:27:00,
2013-05-14 01:30:00,67.6,57.5,29.91,SW,221,2.0,4.0,70,0.00,,---,0.00,VWS V14.01,2013-05-14 06:30:00,
2013-05-14 01:32:00,67.6,57.5,29.91,SSW,192,3.0,4.0,70,0.00,,---,0.00,VWS V14.01,2013-05-14 06:32:00,
2013-05-14 01:37:00,67.6,57.5,29.91,SW,223,0.0,6.0,70,0.00,,---,0.00,VWS V14.01,2013-05-14 06:37:00,
2013-05-14 01:40:00,67.5,57.4,29.91,SW,223,0.0,6.0,70,0.00,,---,0.00,VWS V14.01,2013-05-14 06:40:00,
2013-05-14 01:42:00,67.5,57.4,29.91,South,184,0.0,4.0,70,0.00,,---,0.00,VWS V14.01,2013-05-14 06:42:00,
2013-05-14 01:47:00,67.5,57.4,29.91,South,184,1.0,4.0,70,0.00,,---,0.00,VWS V14.01,2013-05-14 06:47:00,
2013-05-14 01:50:00,67.5,57.4,29.91,South,184,0.0,4.0,70,0.00,,---,0.00,VWS V14.01,2013-05-14 06:50:00,
2013-05-14 01:52:00,67.4,57.3,29.91,South,187,2.0,5.0,70,0.00,,---,0.00,VWS V14.01,2013-05-14 06:52:00,
2013-05-14 01:57:00,67.4,57.3,29.91,South,186,0.0,5.0,70,0.00,,---,0.00,VWS V14.01,2013-05-14 06:57:00,
2013-05-14 02:00:00,67.4,57.3,29.91,South,186,0.0,5.0,70,0.00,,---,0.00,VWS V14.01,2013-05-14 07:00:00,
2013-05-14 02:02:00,67.3,57.2,29.91,South,186,0.0,1.0,70,0.00,,---,0.00,VWS V14.01,2013-05-14 07:02:00,
2013-05-14 02:07:00,67.2,57.1,29.90,South,186,0.0,1.0,70,0.00,,---,0.00,VWS V14.01,2013-05-14 07:07:00,
2013-05-14 02:10:00,67.2,57.1,29.90,SE,131,0.0,2.0,70,0.00,,---,0.00,VWS V14.01,2013-05-14 07:10:00,
2013-05-14 02:12:00,67.1,57.4,29.90,SE,131,0.0,1.0,71,0.00,,---,0.00,VWS V14.01,2013-05-14 07:12:00,
2013-05-14 02:17:00,67.0,57.3,29.90,SE,131,0.0,1.0,71,0.00,,---,0.00,VWS V14.01,2013-05-14 07:17:00,
2013-05-14 02:20:00,66.9,57.2,29.90,SE,131,0.0,1.0,71,0.00,,---,0.00,VWS V14.01,2013-05-14 07:20:00,
2013-05-14 02:22:00,66.8,57.1,29.89,SE,131,0.0,1.0,71,0.00,,---,0.00,VWS V14.01,2013-05-14 07:22:00,
2013-05-14 02:27:00,66.6,57.3,29.89,SE,131,0.0,1.0,72,0.00,,---,0.00,VWS V14.01,2013-05-14 07:27:00,
2013-05-14 02:30:00,66.6,57.3,29.89,SE,131,2.0,2.0,72,0.00,,---,0.00,VWS V14.01,2013-05-14 07:30:00,
2013-05-14 02:32:00,66.4,57.1,29.89,SE,136,0.0,2.0,72,0.00,,---,0.00,VWS V14.01,2013-05-14 07:32:00,
2013-05-14 02:37:00,66.2,56.9,29.89,SE,136,0.0,2.0,72,0.00,,---,0.00,VWS V14.01,2013-05-14 07:37:00,
2013-05-14 02:40:00,66.2,56.9,29.89,SE,136,0.0,2.0,72,0.00,,---,0.00,VWS V14.01,2013-05-14 07:40:00,
2013-05-14 02:42:00,66.1,56.8,29.89,SE,136,0.0,1.0,72,0.00,,---,0.00,VWS V14.01,2013-05-14 07:42:00,
2013-05-14 02:47:00,66.0,56.7,29.88,SE,136,0.0,1.0,72,0.00,,---,0.00,VWS V14.01,2013-05-14 07:47:00,
2013-05-14 02:50:00,66.0,56.7,29.88,SE,136,0.0,1.0,72,0.00,,---,0.00,VWS V14.01,2013-05-14 07:50:00,
2013-05-14 02:52:00,65.9,57.0,29.88,SE,136,0.0,2.0,73,0.00,,---,0.00,VWS V14.01,2013-05-14 07:52:00,
2013-05-14 02:57:00,65.7,56.4,29.88,South,188,2.0,5.0,72,0.00,,---,0.00,VWS V14.01,2013-05-14 07:57:00,
2013-05-14 03:00:00,65.7,56.4,29.88,South,188,1.0,5.0,72,0.00,,---,0.00,VWS V14.01,2013-05-14 08:00:00,
2013-05-14 03:02:00,65.6,56.7,29.88,South,188,0.0,0.0,73,0.00,,---,0.00,VWS V14.01,2013-05-14 08:02:00,
2013-05-14 03:07:00,65.6,56.7,29.88,South,188,0.0,1.0,73,0.00,,---,0.00,VWS V14.01,2013-05-14 08:07:00,
2013-05-14 03:10:00,65.5,56.6,29.88,South,188,0.0,1.0,73,0.00,,---,0.00,VWS V14.01,2013-05-14 08:10:00,
2013-05-14 03:12:00,65.4,56.5,29.88,South,188,0.0,0.0,73,0.00,,---,0.00,VWS V14.01,2013-05-14 08:12:00,
2013-05-14 03:18:00,65.3,56.4,29.88,South,188,0.0,0.0,73,0.00,,---,0.00,VWS V14.01,2013-05-14 08:18:00,
2013-05-14 03:20:00,65.3,56.4,29.88,South,188,0.0,0.0,73,0.00,,---,0.00,VWS V14.01,2013-05-14 08:20:00,
2013-05-14 03:23:00,65.2,56.3,29.88,South,188,0.0,1.0,73,0.00,,---,0.00,VWS V14.01,2013-05-14 08:23:00,
2013-05-14 03:28:00,65.0,56.5,29.87,South,188,0.0,1.0,74,0.00,,---,0.00,VWS V14.01,2013-05-14 08:28:00,
2013-05-14 03:30:00,65.0,56.5,29.87,South,188,0.0,1.0,74,0.00,,---,0.00,VWS V14.01,2013-05-14 08:30:00,
2013-05-14 03:33:00,64.9,56.4,29.87,South,188,0.0,2.0,74,0.00,,---,0.00,VWS V14.01,2013-05-14 08:33:00,
2013-05-14 03:38:00,64.7,56.2,29.87,South,183,2.0,2.0,74,0.00,,---,0.00,VWS V14.01,2013-05-14 08:38:00,
2013-05-14 03:40:00,64.7,56.2,29.87,South,183,2.0,2.0,74,0.00,,---,0.00,VWS V14.01,2013-05-14 08:40:00,
2013-05-14 03:43:00,64.5,56.0,29.87,SSW,201,0.0,6.0,74,0.00,,---,0.00,VWS V14.01,2013-05-14 08:43:00,
2013-05-14 03:48:00,64.4,56.3,29.87,SSW,201,0.0,6.0,75,0.00,,---,0.00,VWS V14.01,2013-05-14 08:48:00,
2013-05-14 03:50:00,64.4,56.3,29.87,SSW,201,0.0,6.0,75,0.00,,---,0.00,VWS V14.01,2013-05-14 08:50:00,
2013-05-14 03:53:00,64.3,56.2,29.87,SSW,201,0.0,0.0,75,0.00,,---,0.00,VWS V14.01,2013-05-14 08:53:00,
2013-05-14 03:58:00,64.1,56.0,29.87,SSW,202,0.0,2.0,75,0.00,,---,0.00,VWS V14.01,2013-05-14 08:58:00,
2013-05-14 04:00:00,64.1,56.0,29.87,SSW,202,0.0,2.0,75,0.00,,---,0.00,VWS V14.01,2013-05-14 09:00:00,
2013-05-14 04:03:00,64.0,55.9,29.87,SSW,202,0.0,0.0,75,0.00,,---,0.00,VWS V14.01,2013-05-14 09:03:00,
2013-05-14 04:08:00,64.0,55.9,29.87,SSW,202,0.0,0.0,75,0.00,,---,0.00,VWS V14.01,2013-05-14 09:08:00,
2013-05-14 04:10:00,64.0,55.9,29.87,SSW,202,0.0,0.0,75,0.00,,---,0.00,VWS V14.01,2013-05-14 09:10:00,
2013-05-14 04:13:00,64.0,55.9,29.87,SSW,202,0.0,0.0,75,0.00,,---,0.00,VWS V14.01,2013-05-14 09:13:00,
2013-05-14 04:18:00,64.0,55.9,29.87,South,172,0.0,0.0,75,0.00,,---,0.00,VWS V14.01,2013-05-14 09:18:00,
2013-05-14 04:20:00,64.0,55.9,29.87,South,172,0.0,4.0,75,0.00,,---,0.00,VWS V14.01,2013-05-14 09:20:00,
2013-05-14 04:23:00,64.0,55.9,29.87,South,189,0.0,2.0,75,0.00,,---,0.00,VWS V14.01,2013-05-14 09:23:00,
2013-05-14 04:28:00,64.1,56.0,29.86,South,189,0.0,0.0,75,0.00,,---,0.00,VWS V14.01,2013-05-14 09:28:00,
2013-05-14 04:30:00,64.1,56.0,29.86,South,189,0.0,2.0,75,0.00,,---,0.00,VWS V14.01,2013-05-14 09:30:00,
2013-05-14 04:33:00,64.2,56.1,29.86,South,189,0.0,3.0,75,0.00,,---,0.00,VWS V14.01,2013-05-14 09:33:00,
2013-05-14 04:38:00,64.2,55.8,29.86,South,189,0.0,1.0,74,0.00,,---,0.00,VWS V14.01,2013-05-14 09:38:00,
2013-05-14 04:40:00,64.2,55.8,29.86,South,189,0.0,3.0,74,0.00,,---,0.00,VWS V14.01,2013-05-14 09:40:00,
2013-05-14 04:43:00,64.2,55.8,29.86,South,189,0.0,3.0,74,0.00,,---,0.00,VWS V14.01,2013-05-14 09:43:00,
2013-05-14 04:48:00,64.3,55.8,29.86,WSW,255,0.0,0.0,74,0.00,,---,0.00,VWS V14.01,2013-05-14 09:48:00,
2013-05-14 04:50:00,64.3,55.8,29.86,WSW,255,0.0,6.0,74,0.00,,---,0.00,VWS V14.01,2013-05-14 09:50:00,
2013-05-14 04:53:00,64.4,55.9,29.86,WSW,255,0.0,0.0,74,0.00,,---,0.00,VWS V14.01,2013-05-14 09:53:00,
2013-05-14 04:58:00,64.5,56.0,29.86,WSW,255,0.0,0.0,74,0.00,,---,0.00,VWS V14.01,2013-05-14 09:58:00,
2013-05-14 05:00:00,64.5,56.0,29.86,WSW,255,0.0,1.0,74,0.00,,---,0.00,VWS V14.01,2013-05-14 10:00:00,
2013-05-14 05:03:00,64.6,55.8,29.86,WSW,255,0.0,1.0,73,0.00,,---,0.00,VWS V14.01,2013-05-14 10:03:00,
2013-05-14 05:08:00,64.7,55.9,29.86,WSW,255,0.0,0.0,73,0.00,,---,0.00,VWS V14.01,2013-05-14 10:08:00,
2013-05-14 05:10:00,64.7,55.9,29.86,WSW,255,0.0,1.0,73,0.00,,---,0.00,VWS V14.01,2013-05-14 10:10:00,
2013-05-14 05:13:00,64.7,55.9,29.86,WSW,255,0.0,0.0,73,0.00,,---,0.00,VWS V14.01,2013-05-14 10:13:00,
2013-05-14 05:18:00,64.6,55.8,29.86,WSW,255,0.0,0.0,73,0.00,,---,0.00,VWS V14.01,2013-05-14 10:18:00,
2013-05-14 05:20:00,64.6,55.8,29.86,WSW,255,0.0,1.0,73,0.00,,---,0.00,VWS V14.01,2013-05-14 10:20:00,
2013-05-14 05:23:00,64.4,55.9,29.86,WSW,255,0.0,0.0,74,0.00,,---,0.00,VWS V14.01,2013-05-14 10:23:00,
2013-05-14 05:28:00,64.1,55.7,29.86,WSW,255,0.0,0.0,74,0.01,,---,0.01,VWS V14.01,2013-05-14 10:28:00,
2013-05-14 05:30:00,64.1,55.7,29.86,WSW,255,0.0,0.0,74,0.01,,---,0.01,VWS V14.01,2013-05-14 10:30:00,
2013-05-14 05:33:00,63.8,55.7,29.86,WSW,255,0.0,1.0,75,0.01,,---,0.01,VWS V14.01,2013-05-14 10:33:00,
2013-05-14 05:38:00,63.5,55.4,29.86,South,184,0.0,0.0,75,0.01,,---,0.01,VWS V14.01,2013-05-14 10:38:00,
2013-05-14 05:40:00,63.5,55.4,29.86,South,184,0.0,3.0,75,0.01,,---,0.01,VWS V14.01,2013-05-14 10:40:00,
2013-05-14 05:43:00,63.2,55.2,29.86,South,184,0.0,1.0,75,0.01,,---,0.01,VWS V14.01,2013-05-14 10:43:00,
2013-05-14 05:48:00,63.0,55.3,29.86,South,184,0.0,0.0,76,0.01,,---,0.01,VWS V14.01,2013-05-14 10:48:00,
2013-05-14 05:50:00,63.0,55.3,29.86,South,184,0.0,1.0,76,0.01,,---,0.01,VWS V14.01,2013-05-14 10:50:00,
2013-05-14 05:53:00,62.7,55.0,29.86,South,184,0.0,1.0,76,0.01,,---,0.01,VWS V14.01,2013-05-14 10:53:00,
2013-05-14 05:58:00,62.5,55.2,29.86,South,184,0.0,0.0,77,0.01,,---,0.01,VWS V14.01,2013-05-14 10:58:00,
2013-05-14 06:00:00,62.5,55.2,29.86,South,184,0.0,1.0,77,0.01,,---,0.01,VWS V14.01,2013-05-14 11:00:00,
2013-05-14 06:03:00,62.3,55.0,29.86,South,184,0.0,0.0,77,0.01,,---,0.01,VWS V14.01,2013-05-14 11:03:00,
2013-05-14 06:08:00,62.1,54.8,29.86,South,184,0.0,0.0,77,0.01,,---,0.01,VWS V14.01,2013-05-14 11:08:00,
2013-05-14 06:10:00,62.2,54.9,29.86,South,184,0.0,0.0,77,0.01,,---,0.01,VWS V14.01,2013-05-14 11:10:00,
2013-05-14 06:13:00,61.9,55.0,29.86,South,184,0.0,0.0,78,0.01,,---,0.01,VWS V14.01,2013-05-14 11:13:00,
2013-05-14 06:19:00,61.7,54.8,29.86,South,184,0.0,0.0,78,0.01,,---,0.01,VWS V14.01,2013-05-14 11:19:00,
2013-05-14 06:20:00,61.7,54.8,29.86,South,184,0.0,0.0,78,0.01,,---,0.01,VWS V14.01,2013-05-14 11:20:00,
2013-05-14 06:24:00,61.4,54.5,29.86,South,184,0.0,0.0,78,0.01,,---,0.01,VWS V14.01,2013-05-14 11:24:00,
2013-05-14 06:29:00,61.3,54.7,29.86,South,184,0.0,0.0,79,0.00,,---,0.01,VWS V14.01,2013-05-14 11:29:00,
2013-05-14 06:30:00,61.3,54.7,29.86,South,184,0.0,0.0,79,0.01,,---,0.01,VWS V14.01,2013-05-14 11:30:00,
2013-05-14 06:34:00,61.1,54.5,29.86,South,184,0.0,0.0,79,0.00,,---,0.01,VWS V14.01,2013-05-14 11:34:00,
2013-05-14 06:39:00,61.0,54.8,29.86,South,184,0.0,0.0,80,0.00,,---,0.01,VWS V14.01,2013-05-14 11:39:00,
2013-05-14 06:40:00,61.0,54.8,29.86,South,184,0.0,0.0,80,0.00,,---,0.01,VWS V14.01,2013-05-14 11:40:00,
2013-05-14 06:44:00,61.1,54.5,29.86,South,184,0.0,0.0,79,0.00,,---,0.01,VWS V14.01,2013-05-14 11:44:00,
2013-05-14 06:49:00,61.2,54.6,29.86,South,184,0.0,0.0,79,0.00,,---,0.01,VWS V14.01,2013-05-14 11:49:00,
2013-05-14 06:50:00,61.2,54.6,29.86,South,184,0.0,0.0,79,0.00,,---,0.01,VWS V14.01,2013-05-14 11:50:00,
2013-05-14 06:54:00,61.4,54.5,29.86,South,182,0.0,2.0,78,0.00,,---,0.01,VWS V14.01,2013-05-14 11:54:00,
2013-05-14 06:59:00,61.7,54.8,29.86,South,191,2.0,2.0,78,0.00,,---,0.01,VWS V14.01,2013-05-14 11:59:00,
2013-05-14 07:00:00,61.7,54.8,29.86,South,182,0.0,2.0,78,0.00,,---,0.01,VWS V14.01,2013-05-14 12:00:00,
2013-05-14 07:04:00,62.1,54.8,29.86,South,191,0.0,2.0,77,0.00,,---,0.01,VWS V14.01,2013-05-14 12:04:00,
2013-05-14 07:09:00,62.5,54.8,29.86,South,191,0.0,0.0,76,0.00,,---,0.01,VWS V14.01,2013-05-14 12:09:00,
2013-05-14 07:10:00,62.4,54.7,29.86,South,191,0.0,2.0,76,0.00,,---,0.01,VWS V14.01,2013-05-14 12:10:00,
2013-05-14 07:14:00,63.0,55.0,29.86,SSW,203,0.0,3.0,75,0.00,,---,0.01,VWS V14.01,2013-05-14 12:14:00,
2013-05-14 07:19:00,63.5,55.1,29.86,SSW,196,0.0,0.0,74,0.00,,---,0.01,VWS V14.01,2013-05-14 12:19:00,
2013-05-14 07:20:00,63.5,55.1,29.86,SSW,196,0.0,3.0,74,0.00,,---,0.01,VWS V14.01,2013-05-14 12:20:00,
2013-05-14 07:24:00,64.1,55.3,29.86,SW,214,0.0,4.0,73,0.00,,---,0.01,VWS V14.01,2013-05-14 12:24:00,
2013-05-14 07:29:00,64.8,54.8,29.86,South,181,0.0,1.0,70,0.00,,---,0.01,VWS V14.01,2013-05-14 12:29:00,
2013-05-14 07:30:00,64.6,55.0,29.86,South,181,1.0,6.0,71,0.00,,---,0.01,VWS V14.01,2013-05-14 12:30:00,
2013-05-14 07:34:00,65.4,55.0,29.86,SSE,168,2.0,3.0,69,0.00,,---,0.01,VWS V14.01,2013-05-14 12:34:00,
2013-05-14 07:39:00,66.1,54.8,29.86,South,190,0.0,1.0,67,0.00,,---,0.01,VWS V14.01,2013-05-14 12:39:00,
2013-05-14 07:40:00,65.9,55.0,29.86,South,190,1.0,4.0,68,0.00,,---,0.01,VWS V14.01,2013-05-14 12:40:00,
2013-05-14 07:44:00,66.8,55.1,29.86,SSW,197,0.0,4.0,66,0.00,,---,0.01,VWS V14.01,2013-05-14 12:44:00,
2013-05-14 07:49:00,67.7,55.1,29.86,SW,222,4.0,4.0,64,0.00,,---,0.01,VWS V14.01,2013-05-14 12:49:00,
2013-05-14 07:50:00,67.5,55.3,29.86,SW,232,2.0,6.0,65,0.00,,---,0.01,VWS V14.01,2013-05-14 12:50:00,
2013-05-14 07:54:00,68.7,55.6,29.87,South,184,0.0,6.0,63,0.00,,---,0.01,VWS V14.01,2013-05-14 12:54:00,
2013-05-14 07:59:00,69.6,55.6,29.86,WSW,243,0.0,7.0,61,0.00,,---,0.01,VWS V14.01,2013-05-14 12:59:00,
2013-05-14 08:00:00,69.3,55.7,29.86,SSW,212,6.0,6.0,62,0.00,,---,0.01,VWS V14.01,2013-05-14 13:00:00,
2013-05-14 08:04:00,70.4,55.9,29.86,SW,223,0.0,7.0,60,0.00,,---,0.01,VWS V14.01,2013-05-14 13:04:00,
2013-05-14 08:09:00,71.2,55.7,29.86,SW,219,5.0,5.0,58,0.00,,---,0.01,VWS V14.01,2013-05-14 13:09:00,
2013-05-14 08:10:00,71.0,55.5,29.86,South,184,2.0,7.0,58,0.00,,---,0.01,VWS V14.01,2013-05-14 13:10:00,
2013-05-14 08:14:00,72.0,56.4,29.86,South,190,0.0,7.0,58,0.00,,---,0.01,VWS V14.01,2013-05-14 13:14:00,
2013-05-14 08:19:00,72.6,56.0,29.86,SSE,150,1.0,4.0,56,0.00,,---,0.01,VWS V14.01,2013-05-14 13:19:00,
2013-05-14 08:20:00,72.4,55.8,29.86,SSE,167,1.0,10.0,56,0.00,,---,0.01,VWS V14.01,2013-05-14 13:20:00,
2013-05-14 08:24:00,73.2,56.1,29.87,SSW,204,0.0,7.0,55,0.00,,---,0.01,VWS V14.01,2013-05-14 13:24:00,
2013-05-14 08:29:00,73.9,56.2,29.86,SW,218,0.0,8.0,54,0.00,,---,0.01,VWS V14.01,2013-05-14 13:29:00,
2013-05-14 08:30:00,73.7,56.5,29.86,SSW,199,4.0,7.0,55,0.00,,---,0.01,VWS V14.01,2013-05-14 13:30:00,
2013-05-14 08:34:00,74.5,56.3,29.86,SSW,197,5.0,10.0,53,0.00,,---,0.01,VWS V14.01,2013-05-14 13:34:00,
2013-05-14 08:39:00,75.0,56.2,29.86,WSW,239,4.0,7.0,52,0.00,,---,0.01,VWS V14.01,2013-05-14 13:39:00,
2013-05-14 08:40:00,74.9,56.1,29.86,SSE,159,5.0,12.0,52,0.00,,---,0.01,VWS V14.01,2013-05-14 13:40:00,
2013-05-14 08:44:00,75.5,56.1,29.86,SSW,204,5.0,8.0,51,0.00,,---,0.01,VWS V14.01,2013-05-14 13:44:00,
2013-05-14 08:49:00,76.0,55.5,29.86,WSW,254,4.0,7.0,49,0.00,,---,0.01,VWS V14.01,2013-05-14 13:49:00,
2013-05-14 08:50:00,75.8,56.4,29.86,ESE,117,1.0,8.0,51,0.00,,---,0.01,VWS V14.01,2013-05-14 13:50:00,
2013-05-14 08:54:00,76.4,55.8,29.86,SSW,205,2.0,9.0,49,0.00,,---,0.01,VWS V14.01,2013-05-14 13:54:00,
2013-05-14 08:59:00,76.7,55.5,29.86,SSW,207,5.0,12.0,48,0.00,,---,0.01,VWS V14.01,2013-05-14 13:59:00,
2013-05-14 09:00:00,76.6,55.5,29.86,South,182,2.0,9.0,48,0.00,,---,0.01,VWS V14.01,2013-05-14 14:00:00,
2013-05-14 09:04:00,77.2,55.4,29.86,SW,227,6.0,12.0,47,0.00,,---,0.01,VWS V14.01,2013-05-14 14:04:00,
2013-05-14 09:09:00,77.8,56.0,29.86,SE,124,1.0,5.0,47,0.00,,---,0.01,VWS V14.01,2013-05-14 14:09:00,
2013-05-14 09:10:00,77.6,55.8,29.86,SSW,208,0.0,12.0,47,0.00,,---,0.01,VWS V14.01,2013-05-14 14:10:00,
2013-05-14 09:14:00,78.4,55.9,29.86,South,187,0.0,9.0,46,0.00,,---,0.01,VWS V14.01,2013-05-14 14:14:00,
2013-05-14 09:20:00,79.0,55.9,29.86,SW,226,2.0,10.0,45,0.00,,---,0.01,VWS V14.01,2013-05-14 14:20:00,
2013-05-14 09:25:00,79.5,55.7,29.86,SSW,197,3.0,10.0,44,0.00,,---,0.01,VWS V14.01,2013-05-14 14:25:00,
2013-05-14 09:30:00,80.1,56.2,29.85,SW,215,1.0,7.0,44,0.00,,---,0.01,VWS V14.01,2013-05-14 14:30:00,
2013-05-14 09:35:00,80.7,56.2,29.85,SW,219,4.0,8.0,43,0.00,,---,0.01,VWS V14.01,2013-05-14 14:35:00,
2013-05-14 09:40:00,81.1,55.2,29.86,SSW,211,0.0,10.0,41,0.00,,---,0.01,VWS V14.01,2013-05-14 14:40:00,
2013-05-14 09:45:00,81.5,56.2,29.85,SW,214,1.0,10.0,42,0.00,,---,0.01,VWS V14.01,2013-05-14 14:45:00,
2013-05-14 09:50:00,82.0,56.0,29.85,SSW,208,4.0,7.0,41,0.00,,---,0.01,VWS V14.01,2013-05-14 14:50:00,
2013-05-14 09:55:00,82.5,55.8,29.85,SSW,213,3.0,13.0,40,0.00,,---,0.01,VWS V14.01,2013-05-14 14:55:00,
2013-05-14 10:00:00,82.8,55.3,29.85,SW,234,4.0,12.0,39,0.00,,---,0.01,VWS V14.01,2013-05-14 15:00:00,
2013-05-14 10:05:00,83.0,55.5,29.85,SSW,200,5.0,12.0,39,0.00,,---,0.01,VWS V14.01,2013-05-14 15:05:00,
2013-05-14 10:10:00,83.2,55.7,29.85,WSW,238,3.0,6.0,39,0.00,,---,0.01,VWS V14.01,2013-05-14 15:10:00,
2013-05-14 10:15:00,83.6,56.0,29.85,WSW,254,3.0,8.0,39,0.00,,---,0.01,VWS V14.01,2013-05-14 15:15:00,
2013-05-14 10:20:00,84.0,55.7,29.85,WSW,239,1.0,11.0,38,0.00,,---,0.01,VWS V14.01,2013-05-14 15:20:00,
2013-05-14 10:25:00,84.5,56.1,29.85,SSE,166,4.0,11.0,38,0.00,,---,0.01,VWS V14.01,2013-05-14 15:25:00,
2013-05-14 10:30:00,85.0,56.6,29.85,ENE,69,2.0,4.0,38,0.00,,---,0.01,VWS V14.01,2013-05-14 15:30:00,
2013-05-14 10:35:00,85.3,56.1,29.85,SW,236,1.0,7.0,37,0.00,,---,0.01,VWS V14.01,2013-05-14 15:35:00,
2013-05-14 10:40:00,85.5,56.3,29.85,South,179,9.0,10.0,37,0.00,,---,0.01,VWS V14.01,2013-05-14 15:40:00,
2013-05-14 10:45:00,85.6,56.4,29.85,WSW,253,4.0,10.0,37,0.00,,---,0.01,VWS V14.01,2013-05-14 15:45:00,
2013-05-14 10:50:00,85.8,56.5,29.85,SSW,207,3.0,5.0,37,0.00,,---,0.01,VWS V14.01,2013-05-14 15:50:00,
2013-05-14 10:55:00,86.2,56.9,29.85,SW,234,1.0,10.0,37,0.00,,---,0.01,VWS V14.01,2013-05-14 15:55:00,
2013-05-14 11:00:00,86.7,56.6,29.85,SSW,195,1.0,3.0,36,0.00,,---,0.01,VWS V14.01,2013-05-14 16:00:00,
2013-05-14 11:05:00,87.2,56.2,29.85,SSW,208,2.0,11.0,35,0.00,,---,0.01,VWS V14.01,2013-05-14 16:05:00,
2013-05-14 11:10:00,87.5,56.5,29.85,SSW,202,3.0,6.0,35,0.00,,---,0.01,VWS V14.01,2013-05-14 16:10:00,
2013-05-14 11:15:00,87.8,56.8,29.85,SSW,206,1.0,7.0,35,0.00,,---,0.01,VWS V14.01,2013-05-14 16:15:00,
2013-05-14 11:20:00,88.3,57.2,29.85,SW,217,4.0,7.0,35,0.00,,---,0.01,VWS V14.01,2013-05-14 16:20:00,
2013-05-14 11:25:00,88.7,57.6,29.85,SW,226,2.0,8.0,35,0.00,,---,0.01,VWS V14.01,2013-05-14 16:25:00,
2013-05-14 11:30:00,89.0,57.0,29.85,South,188,3.0,8.0,34,0.00,,---,0.01,VWS V14.01,2013-05-14 16:30:00,
2013-05-14 11:35:00,89.3,57.3,29.85,WSW,249,2.0,8.0,34,0.00,,---,0.01,VWS V14.01,2013-05-14 16:35:00,
2013-05-14 11:40:00,89.5,56.6,29.85,SSW,195,3.0,7.0,33,0.00,,---,0.01,VWS V14.01,2013-05-14 16:40:00,
2013-05-14 11:46:00,89.8,57.7,29.85,WSW,238,6.0,7.0,34,0.00,,---,0.01,VWS V14.01,2013-05-14 16:46:00,
2013-05-14 11:50:00,90.0,57.1,29.85,SSW,199,4.0,11.0,33,0.00,,---,0.01,VWS V14.01,2013-05-14 16:50:00,
2013-05-14 11:51:00,90.2,57.2,29.85,South,173,1.0,6.0,33,0.00,,---,0.01,VWS V14.01,2013-05-14 16:51:00,
2013-05-14 11:56:00,90.5,57.5,29.85,SSW,193,2.0,7.0,33,0.00,,---,0.01,VWS V14.01,2013-05-14 16:56:00,
2013-05-14 12:00:00,90.7,57.7,29.84,South,169,2.0,10.0,33,0.00,,---,0.01,VWS V14.01,2013-05-14 17:00:00,
2013-05-14 12:01:00,90.9,57.8,29.84,South,182,2.0,4.0,33,0.00,,---,0.01,VWS V14.01,2013-05-14 17:01:00,
2013-05-14 12:06:00,91.3,59.0,29.85,WSW,245,5.0,5.0,34,0.00,,---,0.01,VWS V14.01,2013-05-14 17:06:00,
2013-05-14 12:10:00,91.5,57.5,29.84,WSW,240,0.0,5.0,32,0.00,,---,0.01,VWS V14.01,2013-05-14 17:10:00,
2013-05-14 12:11:00,91.9,58.7,29.84,South,172,1.0,7.0,33,0.00,,---,0.01,VWS V14.01,2013-05-14 17:11:00,
2013-05-14 12:16:00,92.3,58.2,29.84,SSW,207,0.0,7.0,32,0.00,,---,0.01,VWS V14.01,2013-05-14 17:16:00,
2013-05-14 12:20:00,92.4,58.3,29.84,SSW,202,3.0,7.0,32,0.00,,---,0.01,VWS V14.01,2013-05-14 17:20:00,
2013-05-14 12:21:00,92.7,59.4,29.84,South,190,4.0,6.0,33,0.00,,---,0.01,VWS V14.01,2013-05-14 17:21:00,
2013-05-14 12:26:00,93.1,58.0,29.84,SSW,209,4.0,8.0,31,0.00,,---,0.01,VWS V14.01,2013-05-14 17:26:00,
2013-05-14 12:30:00,93.1,58.0,29.84,SW,215,4.0,8.0,31,0.00,,---,0.01,VWS V14.01,2013-05-14 17:30:00,
2013-05-14 12:31:00,93.3,58.2,29.84,SW,215,0.0,6.0,31,0.00,,---,0.01,VWS V14.01,2013-05-14 17:31:00,
2013-05-14 12:36:00,93.6,58.4,29.83,SSW,205,0.0,6.0,31,0.00,,---,0.01,VWS V14.01,2013-05-14 17:36:00,
2013-05-14 12:40:00,93.7,58.5,29.83,SSE,160,2.0,6.0,31,0.00,,---,0.01,VWS V14.01,2013-05-14 17:40:00,
2013-05-14 12:41:00,93.9,58.7,29.83,SSW,208,1.0,7.0,31,0.00,,---,0.01,VWS V14.01,2013-05-14 17:41:00,
2013-05-14 12:46:00,94.2,59.8,29.83,SSW,209,2.0,8.0,32,0.00,,---,0.01,VWS V14.01,2013-05-14 17:46:00,
2013-05-14 12:50:00,94.3,59.0,29.83,SW,223,5.0,8.0,31,0.00,,---,0.01,VWS V14.01,2013-05-14 17:50:00,
2013-05-14 12:51:00,94.4,59.1,29.83,SSE,167,2.0,5.0,31,0.00,,---,0.01,VWS V14.01,2013-05-14 17:51:00,
2013-05-14 12:56:00,94.5,59.2,29.83,North,5,1.0,5.0,31,0.00,,---,0.01,VWS V14.01,2013-05-14 17:56:00,
2013-05-14 13:00:00,94.5,59.2,29.83,SW,221,9.0,12.0,31,0.00,,---,0.01,VWS V14.01,2013-05-14 18:00:00,
2013-05-14 13:01:00,94.5,58.3,29.82,ESE,116,0.0,8.0,30,0.00,,---,0.01,VWS V14.01,2013-05-14 18:01:00,
2013-05-14 13:06:00,94.7,60.3,29.82,SSW,213,5.0,8.0,32,0.00,,---,0.01,VWS V14.01,2013-05-14 18:06:00,
2013-05-14 13:10:00,94.8,59.5,29.82,SW,230,0.0,8.0,31,0.00,,---,0.01,VWS V14.01,2013-05-14 18:10:00,
2013-05-14 13:11:00,95.0,60.5,29.82,SSW,197,1.0,5.0,32,0.00,,---,0.01,VWS V14.01,2013-05-14 18:11:00,
2013-05-14 13:16:00,95.3,59.0,29.82,NE,39,1.0,7.0,30,0.00,,---,0.01,VWS V14.01,2013-05-14 18:16:00,
2013-05-14 13:20:00,95.3,59.0,29.82,South,191,3.0,7.0,30,0.00,,---,0.01,VWS V14.01,2013-05-14 18:20:00,
2013-05-14 13:21:00,95.5,60.1,29.82,ESE,121,0.0,4.0,31,0.00,,---,0.01,VWS V14.01,2013-05-14 18:21:00,
2013-05-14 13:26:00,95.6,59.2,29.82,South,189,4.0,9.0,30,0.00,,---,0.01,VWS V14.01,2013-05-14 18:26:00,
2013-05-14 13:30:00,95.7,59.3,29.81,South,190,3.0,9.0,30,0.00,,---,0.01,VWS V14.01,2013-05-14 18:30:00,
2013-05-14 13:31:00,95.9,57.6,29.81,South,178,6.0,8.0,28,0.00,,---,0.01,VWS V14.01,2013-05-14 18:31:00,
2013-05-14 13:36:00,96.2,57.8,29.81,WSW,246,1.0,10.0,28,0.00,,---,0.01,VWS V14.01,2013-05-14 18:36:00,
2013-05-14 13:40:00,96.2,57.8,29.81,SW,232,5.0,10.0,28,0.00,,---,0.01,VWS V14.01,2013-05-14 18:40:00,
2013-05-14 13:41:00,96.3,57.9,29.81,WSW,252,2.0,8.0,28,0.00,,---,0.01,VWS V14.01,2013-05-14 18:41:00,
2013-05-14 13:46:00,96.5,59.1,29.81,SW,217,3.0,8.0,29,0.00,,---,0.01,VWS V14.01,2013-05-14 18:46:00,
2013-05-14 13:50:00,96.5,59.1,29.81,South,169,2.0,8.0,29,0.00,,---,0.01,VWS V14.01,2013-05-14 18:50:00,
2013-05-14 13:52:00,96.8,58.3,29.81,West,273,1.0,2.0,28,0.00,,---,0.01,VWS V14.01,2013-05-14 18:52:00,
2013-05-14 13:57:00,97.1,59.6,29.80,SSW,206,1.0,5.0,29,0.00,,---,0.01,VWS V14.01,2013-05-14 18:57:00,
2013-05-14 14:00:00,97.1,60.5,29.80,SSW,193,3.0,5.0,30,0.00,,---,0.01,VWS V14.01,2013-05-14 19:00:00,
2013-05-14 14:02:00,97.3,60.7,29.80,SW,223,3.0,5.0,30,0.00,,---,0.01,VWS V14.01,2013-05-14 19:02:00,
2013-05-14 14:07:00,97.6,60.0,29.80,SW,229,4.0,6.0,29,0.00,,---,0.01,VWS V14.01,2013-05-14 19:07:00,
2013-05-14 14:10:00,97.6,60.0,29.80,WSW,258,4.0,6.0,29,0.00,,---,0.01,VWS V14.01,2013-05-14 19:10:00,
2013-05-14 14:12:00,97.3,61.6,29.80,South,185,0.0,4.0,31,0.00,,---,0.01,VWS V14.01,2013-05-14 19:12:00,
2013-05-14 14:17:00,97.2,59.7,29.80,SSE,163,2.0,7.0,29,0.00,,---,0.01,VWS V14.01,2013-05-14 19:17:00,
2013-05-14 14:20:00,97.1,59.6,29.80,WSW,254,4.0,7.0,29,0.00,,---,0.01,VWS V14.01,2013-05-14 19:20:00,
2013-05-14 14:22:00,97.0,59.5,29.80,SW,231,2.0,8.0,29,0.00,,---,0.01,VWS V14.01,2013-05-14 19:22:00,
2013-05-14 14:27:00,97.2,60.6,29.80,WSW,240,5.0,8.0,30,0.00,,---,0.01,VWS V14.01,2013-05-14 19:27:00,
2013-05-14 14:30:00,97.2,60.6,29.80,SW,223,2.0,8.0,30,0.00,,---,0.01,VWS V14.01,2013-05-14 19:30:00,
2013-05-14 14:32:00,97.5,59.0,29.80,SSW,210,0.0,10.0,28,0.00,,---,0.01,VWS V14.01,2013-05-14 19:32:00,
2013-05-14 14:37:00,97.6,58.0,29.80,SE,126,5.0,11.0,27,0.00,,---,0.01,VWS V14.01,2013-05-14 19:37:00,
2013-05-14 14:40:00,97.6,59.0,29.80,SW,215,2.0,11.0,28,0.00,,---,0.01,VWS V14.01,2013-05-14 19:40:00,
2013-05-14 14:42:00,97.5,57.9,29.80,SE,130,0.0,13.0,27,0.00,,---,0.01,VWS V14.01,2013-05-14 19:42:00,
2013-05-14 14:47:00,97.6,60.0,29.79,SW,230,4.0,13.0,29,0.00,,---,0.01,VWS V14.01,2013-05-14 19:47:00,
2013-05-14 14:50:00,97.7,59.1,29.79,SSW,207,5.0,13.0,28,0.00,,---,0.01,VWS V14.01,2013-05-14 19:50:00,
2013-05-14 14:52:00,98.0,58.3,29.80,WSW,246,4.0,10.0,27,0.00,,---,0.01,VWS V14.01,2013-05-14 19:52:00,
2013-05-14 14:57:00,98.0,58.3,29.80,WSW,240,6.0,12.0,27,0.00,,---,0.01,VWS V14.01,2013-05-14 19:57:00,
2013-05-14 15:00:00,98.0,57.3,29.80,WSW,249,3.0,12.0,26,0.00,,---,0.01,VWS V14.01,2013-05-14 20:00:00,
2013-05-14 15:02:00,98.0,57.3,29.79,SSW,192,1.0,10.0,26,0.00,,---,0.01,VWS V14.01,2013-05-14 20:02:00,
2013-05-14 15:07:00,98.3,58.6,29.79,SW,215,5.0,12.0,27,0.00,,---,0.01,VWS V14.01,2013-05-14 20:07:00,
2013-05-14 15:10:00,98.3,58.6,29.79,South,175,4.0,12.0,27,0.00,,---,0.01,VWS V14.01,2013-05-14 20:10:00,
2013-05-14 15:12:00,98.3,58.6,29.79,WSW,237,0.0,8.0,27,0.00,,---,0.01,VWS V14.01,2013-05-14 20:12:00,
2013-05-14 15:17:00,98.3,59.6,29.78,SW,219,1.0,8.0,28,0.00,,---,0.01,VWS V14.01,2013-05-14 20:17:00,
2013-05-14 15:20:00,98.4,58.7,29.78,ENE,60,2.0,8.0,27,0.00,,---,0.01,VWS V14.01,2013-05-14 20:20:00,
2013-05-14 15:22:00,98.4,58.7,29.79,South,187,3.0,10.0,27,0.00,,---,0.01,VWS V14.01,2013-05-14 20:22:00,
2013-05-14 15:27:00,98.6,57.8,29.79,SSW,211,7.0,11.0,26,0.00,,---,0.01,VWS V14.01,2013-05-14 20:27:00,
2013-05-14 15:30:00,98.6,57.8,29.79,South,182,2.0,11.0,26,0.00,,---,0.01,VWS V14.01,2013-05-14 20:30:00,
2013-05-14 15:32:00,98.7,56.8,29.78,SSE,161,1.0,6.0,25,0.00,,---,0.01,VWS V14.01,2013-05-14 20:32:00,
2013-05-14 15:37:00,98.8,56.9,29.78,SW,221,3.0,12.0,25,0.00,,---,0.01,VWS V14.01,2013-05-14 20:37:00,
2013-05-14 15:40:00,98.7,56.8,29.78,WSW,242,3.0,12.0,25,0.00,,---,0.01,VWS V14.01,2013-05-14 20:40:00,
2013-05-14 15:42:00,98.6,57.8,29.78,WSW,249,3.0,7.0,26,0.00,,---,0.01,VWS V14.01,2013-05-14 20:42:00,
2013-05-14 15:47:00,98.6,56.7,29.77,West,271,0.0,13.0,25,0.00,,---,0.01,VWS V14.01,2013-05-14 20:47:00,
2013-05-14 15:50:00,98.6,56.7,29.77,SSW,194,4.0,13.0,25,0.00,,---,0.01,VWS V14.01,2013-05-14 20:50:00,
2013-05-14 15:52:00,98.5,56.6,29.77,SW,216,1.0,12.0,25,0.00,,---,0.01,VWS V14.01,2013-05-14 20:52:00,
2013-05-14 15:57:00,98.3,56.5,29.77,SW,215,6.0,12.0,25,0.00,,---,0.01,VWS V14.01,2013-05-14 20:57:00,
2013-05-14 16:00:00,98.3,56.5,29.77,South,169,5.0,12.0,25,0.00,,---,0.01,VWS V14.01,2013-05-14 21:00:00,
2013-05-14 16:02:00,98.1,56.3,29.77,SW,219,3.0,10.0,25,0.00,,---,0.01,VWS V14.01,2013-05-14 21:02:00,
2013-05-14 16:07:00,97.7,56.0,29.77,SW,235,2.0,18.0,25,0.00,,---,0.01,VWS V14.01,2013-05-14 21:07:00,
2013-05-14 16:10:00,97.7,56.0,29.77,South,178,2.0,18.0,25,0.00,,---,0.01,VWS V14.01,2013-05-14 21:10:00,
2013-05-14 16:12:00,97.6,55.9,29.77,South,186,6.0,13.0,25,0.00,,---,0.01,VWS V14.01,2013-05-14 21:12:00,
2013-05-14 16:17:00,97.3,55.6,29.77,SW,217,3.0,13.0,25,0.00,,---,0.01,VWS V14.01,2013-05-14 21:17:00,
2013-05-14 16:20:00,97.3,55.6,29.77,South,171,2.0,13.0,25,0.00,,---,0.01,VWS V14.01,2013-05-14 21:20:00,
2013-05-14 16:22:00,97.2,55.5,29.77,SW,219,5.0,14.0,25,0.00,,---,0.01,VWS V14.01,2013-05-14 21:22:00,
2013-05-14 16:27:00,97.0,54.3,29.77,SSW,200,6.0,14.0,24,0.00,,---,0.01,VWS V14.01,2013-05-14 21:27:00,
2013-05-14 16:30:00,97.0,54.3,29.77,SW,234,4.0,14.0,24,0.00,,---,0.01,VWS V14.01,2013-05-14 21:30:00,
2013-05-14 16:32:00,96.8,55.2,29.77,SW,216,2.0,9.0,25,0.00,,---,0.01,VWS V14.01,2013-05-14 21:32:00,
2013-05-14 16:37:00,96.7,57.2,29.77,WSW,242,4.0,9.0,27,0.00,,---,0.01,VWS V14.01,2013-05-14 21:37:00,
2013-05-14 16:40:00,96.7,57.2,29.77,WSW,255,2.0,9.0,27,0.00,,---,0.01,VWS V14.01,2013-05-14 21:40:00,
2013-05-14 16:42:00,96.6,56.1,29.77,SSW,196,9.0,14.0,26,0.00,,---,0.01,VWS V14.01,2013-05-14 21:42:00,
2013-05-14 16:48:00,96.3,55.9,29.76,SW,225,3.0,14.0,26,0.00,,---,0.01,VWS V14.01,2013-05-14 21:48:00,
2013-05-14 16:50:00,96.3,55.9,29.76,SSW,207,6.0,14.0,26,0.00,,---,0.01,VWS V14.01,2013-05-14 21:50:00,
2013-05-14 16:53:00,96.1,55.7,29.76,SW,235,0.0,9.0,26,0.00,,---,0.01,VWS V14.01,2013-05-14 21:53:00,
2013-05-14 16:58:00,95.7,54.3,29.76,SW,219,3.0,19.0,25,0.00,,---,0.01,VWS V14.01,2013-05-14 21:58:00,
2013-05-14 17:00:00,95.7,54.3,29.76,South,176,6.0,19.0,25,0.00,,---,0.01,VWS V14.01,2013-05-14 22:00:00,
2013-05-14 17:03:00,95.5,53.0,29.76,SSW,206,4.0,13.0,24,0.00,,---,0.01,VWS V14.01,2013-05-14 22:03:00,
2013-05-14 17:08:00,95.1,53.8,29.76,SSW,202,5.0,15.0,25,0.00,,---,0.01,VWS V14.01,2013-05-14 22:08:00,
2013-05-14 17:10:00,95.1,53.8,29.76,SSW,195,7.0,15.0,25,0.00,,---,0.01,VWS V14.01,2013-05-14 22:10:00,
2013-05-14 17:13:00,95.0,53.7,29.76,SSE,160,5.0,11.0,25,0.00,,---,0.01,VWS V14.01,2013-05-14 22:13:00,
2013-05-14 17:18:00,94.9,53.6,29.76,WSW,237,6.0,15.0,25,0.00,,---,0.01,VWS V14.01,2013-05-14 22:18:00,
2013-05-14 17:20:00,94.9,53.6,29.76,WSW,237,6.0,15.0,25,0.00,,---,0.01,VWS V14.01,2013-05-14 22:20:00,
2013-05-14 17:23:00,94.8,53.5,29.76,SW,234,2.0,16.0,25,0.00,,---,0.01,VWS V14.01,2013-05-14 22:23:00,
2013-05-14 17:28:00,94.6,51.1,29.75,SW,216,5.0,5.0,23,0.00,,---,0.01,VWS V14.01,2013-05-14 22:28:00,
2013-05-14 17:30:00,94.6,52.2,29.76,WSW,244,4.0,16.0,24,0.00,,---,0.01,VWS V14.01,2013-05-14 22:30:00,
2013-05-14 17:33:00,94.5,52.2,29.76,ENE,69,4.0,9.0,24,0.00,,---,0.01,VWS V14.01,2013-05-14 22:33:00,
2013-05-14 17:38:00,94.3,53.1,29.75,SSW,207,1.0,2.0,25,0.00,,---,0.01,VWS V14.01,2013-05-14 22:38:00,
2013-05-14 17:40:00,94.3,53.1,29.76,SSW,207,2.0,10.0,25,0.00,,---,0.01,VWS V14.01,2013-05-14 22:40:00,
2013-05-14 17:43:00,94.1,51.8,29.75,SW,215,7.0,12.0,24,0.00,,---,0.01,VWS V14.01,2013-05-14 22:43:00,
2013-05-14 17:48:00,93.8,51.6,29.75,SW,223,3.0,3.0,24,0.00,,---,0.01,VWS V14.01,2013-05-14 22:48:00,
2013-05-14 17:50:00,93.8,51.6,29.76,SW,223,1.0,14.0,24,0.00,,---,0.01,VWS V14.01,2013-05-14 22:50:00,
2013-05-14 17:53:00,93.6,52.5,29.75,SSW,213,0.0,13.0,25,0.00,,---,0.01,VWS V14.01,2013-05-14 22:53:00,
2013-05-14 17:58:00,93.4,52.3,29.75,SW,217,8.0,9.0,25,0.00,,---,0.01,VWS V14.01,2013-05-14 22:58:00,
2013-05-14 18:00:00,93.4,52.3,29.75,SSW,210,7.0,13.0,25,0.00,,---,0.01,VWS V14.01,2013-05-14 23:00:00,
2013-05-14 18:03:00,93.2,52.2,29.75,SSW,210,4.0,17.0,25,0.00,,---,0.01,VWS V14.01,2013-05-14 23:03:00,
2013-05-14 18:08:00,92.9,53.0,29.75,WSW,238,10.0,10.0,26,0.00,,---,0.01,VWS V14.01,2013-05-14 23:08:00,
2013-05-14 18:10:00,92.9,51.9,29.75,SSW,210,6.0,17.0,25,0.00,,---,0.01,VWS V14.01,2013-05-14 23:10:00,
2013-05-14 18:13:00,92.6,51.7,29.76,WSW,237,7.0,16.0,25,0.00,,---,0.01,VWS V14.01,2013-05-14 23:13:00,
2013-05-14 18:18:00,92.4,51.5,29.76,WSW,248,5.0,7.0,25,0.00,,---,0.01,VWS V14.01,2013-05-14 23:18:00,
2013-05-14 18:20:00,92.4,51.5,29.75,SSW,192,4.0,17.0,25,0.00,,---,0.01,VWS V14.01,2013-05-14 23:20:00,
2013-05-14 18:23:00,92.2,52.4,29.75,SSW,212,10.0,13.0,26,0.00,,---,0.01,VWS V14.01,2013-05-14 23:23:00,
2013-05-14 18:28:00,92.1,52.3,29.75,West,277,5.0,5.0,26,0.00,,---,0.01,VWS V14.01,2013-05-14 23:28:00,
2013-05-14 18:30:00,92.1,52.3,29.75,South,188,1.0,13.0,26,0.00,,---,0.01,VWS V14.01,2013-05-14 23:30:00,
2013-05-14 18:33:00,91.9,52.2,29.76,SW,232,11.0,16.0,26,0.00,,---,0.01,VWS V14.01,2013-05-14 23:33:00,
2013-05-14 18:38:00,91.8,51.0,29.76,WSW,243,3.0,10.0,25,0.00,,---,0.01,VWS V14.01,2013-05-14 23:38:00,
2013-05-14 18:40:00,91.8,52.1,29.76,SSW,195,10.0,16.0,26,0.00,,---,0.01,VWS V14.01,2013-05-14 23:40:00,
2013-05-14 18:43:00,91.6,51.9,29.75,SSW,206,2.0,11.0,26,0.00,,---,0.01,VWS V14.01,2013-05-14 23:43:00,
2013-05-14 18:48:00,91.5,51.8,29.75,SSW,211,0.0,6.0,26,0.00,,---,0.01,VWS V14.01,2013-05-14 23:48:00,
2013-05-14 18:50:00,91.5,51.8,29.75,SSW,206,6.0,11.0,26,0.00,,---,0.01,VWS V14.01,2013-05-14 23:50:00,
2013-05-14 18:53:00,91.3,51.7,29.76,South,189,16.0,16.0,26,0.00,,---,0.01,VWS V14.01,2013-05-14 23:53:00,
2013-05-14 18:58:00,91.1,51.5,29.75,SSW,209,0.0,3.0,26,0.00,,---,0.01,VWS V14.01,2013-05-14 23:58:00,
2013-05-14 19:00:00,91.2,51.6,29.75,SSW,207,1.0,16.0,26,0.00,,---,0.01,VWS V14.01,2013-05-15 00:00:00,
2013-05-14 19:03:00,91.0,52.4,29.75,SW,223,5.0,10.0,27,0.00,,---,0.01,VWS V14.01,2013-05-15 00:03:00,
2013-05-14 19:08:00,90.8,52.2,29.75,WSW,252,1.0,5.0,27,0.00,,---,0.01,VWS V14.01,2013-05-15 00:08:00,
2013-05-14 19:10:00,90.9,52.3,29.75,WNW,292,5.0,10.0,27,0.00,,---,0.01,VWS V14.01,2013-05-15 00:10:00,
2013-05-14 19:13:00,90.7,52.2,29.75,WSW,246,8.0,11.0,27,0.00,,---,0.01,VWS V14.01,2013-05-15 00:13:00,
2013-05-14 19:18:00,90.5,52.0,29.75,SSW,203,2.0,4.0,27,0.00,,---,0.01,VWS V14.01,2013-05-15 00:18:00,
2013-05-14 19:20:00,90.5,52.0,29.75,SSE,147,4.0,13.0,27,0.00,,---,0.01,VWS V14.01,2013-05-15 00:20:00,
2013-05-14 19:23:00,90.3,52.8,29.76,SSE,157,0.0,10.0,28,0.00,,---,0.01,VWS V14.01,2013-05-15 00:23:00,
2013-05-14 19:28:00,90.2,52.7,29.76,South,187,0.0,3.0,28,0.00,,---,0.01,VWS V14.01,2013-05-15 00:28:00,
2013-05-14 19:30:00,90.2,53.7,29.76,SSW,207,3.0,10.0,29,0.00,,---,0.01,VWS V14.01,2013-05-15 00:30:00,
2013-05-14 19:34:00,89.9,52.5,29.76,SW,236,0.0,12.0,28,0.00,,---,0.01,VWS V14.01,2013-05-15 00:34:00,
2013-05-14 19:39:00,89.6,53.2,29.76,SSW,209,2.0,3.0,29,0.00,,---,0.01,VWS V14.01,2013-05-15 00:39:00,
2013-05-14 19:40:00,89.6,53.2,29.76,SSW,201,3.0,13.0,29,0.00,,---,0.01,VWS V14.01,2013-05-15 00:40:00,
2013-05-14 19:44:00,89.2,52.8,29.76,WSW,252,2.0,7.0,29,0.00,,---,0.01,VWS V14.01,2013-05-15 00:44:00,
2013-05-14 19:49:00,88.8,53.4,29.77,WSW,244,7.0,7.0,30,0.00,,---,0.01,VWS V14.01,2013-05-15 00:49:00,
2013-05-14 19:50:00,88.9,53.5,29.76,WNW,293,0.0,7.0,30,0.00,,---,0.01,VWS V14.01,2013-05-15 00:50:00,
2013-05-14 19:54:00,88.4,53.1,29.77,WSW,242,5.0,11.0,30,0.00,,---,0.01,VWS V14.01,2013-05-15 00:54:00,
2013-05-14 19:59:00,88.0,52.7,29.77,SW,236,2.0,7.0,30,0.00,,---,0.01,VWS V14.01,2013-05-15 00:59:00,
2013-05-14 20:00:00,88.0,52.7,29.77,SSW,209,3.0,11.0,30,0.00,,---,0.01,VWS V14.01,2013-05-15 01:00:00,
2013-05-14 20:04:00,87.6,52.4,29.77,SW,216,2.0,13.0,30,0.00,,---,0.01,VWS V14.01,2013-05-15 01:04:00,
2013-05-14 20:09:00,87.2,52.9,29.77,WSW,249,1.0,7.0,31,0.00,,---,0.01,VWS V14.01,2013-05-15 01:09:00,
2013-05-14 20:10:00,87.3,53.0,29.77,SSW,204,3.0,13.0,31,0.00,,---,0.01,VWS V14.01,2013-05-15 01:10:00,
2013-05-14 20:14:00,86.8,53.4,29.77,SSE,162,1.0,7.0,32,0.00,,---,0.01,VWS V14.01,2013-05-15 01:14:00,
2013-05-14 20:19:00,86.4,53.1,29.77,SSW,192,1.0,2.0,32,0.00,,---,0.01,VWS V14.01,2013-05-15 01:19:00,
2013-05-14 20:20:00,86.5,53.2,29.77,SSW,194,1.0,7.0,32,0.00,,---,0.01,VWS V14.01,2013-05-15 01:20:00,
2013-05-14 20:24:00,86.0,53.6,29.77,SSW,213,4.0,7.0,33,0.00,,---,0.01,VWS V14.01,2013-05-15 01:24:00,
2013-05-14 20:29:00,85.6,52.4,29.78,SW,236,0.0,2.0,32,0.00,,---,0.01,VWS V14.01,2013-05-15 01:29:00,
2013-05-14 20:30:00,85.7,52.5,29.77,SW,236,1.0,7.0,32,0.00,,---,0.01,VWS V14.01,2013-05-15 01:30:00,
2013-05-14 20:34:00,85.2,52.9,29.77,SW,225,0.0,7.0,33,0.00,,---,0.01,VWS V14.01,2013-05-15 01:34:00,
2013-05-14 20:39:00,84.8,52.5,29.77,WSW,246,3.0,6.0,33,0.00,,---,0.01,VWS V14.01,2013-05-15 01:39:00,
2013-05-14 20:40:00,84.9,52.6,29.77,ENE,59,2.0,7.0,33,0.00,,---,0.01,VWS V14.01,2013-05-15 01:40:00,
2013-05-14 20:44:00,84.5,52.3,29.77,SSW,207,2.0,6.0,33,0.00,,---,0.01,VWS V14.01,2013-05-15 01:44:00,
2013-05-14 20:49:00,84.1,52.7,29.78,SSW,211,1.0,7.0,34,0.00,,---,0.01,VWS V14.01,2013-05-15 01:49:00,
2013-05-14 20:50:00,84.3,52.1,29.77,SSW,206,0.0,6.0,33,0.00,,---,0.01,VWS V14.01,2013-05-15 01:50:00,
2013-05-14 20:54:00,83.8,52.5,29.78,WSW,241,0.0,7.0,34,0.00,,---,0.01,VWS V14.01,2013-05-15 01:54:00,
2013-05-14 20:59:00,83.4,52.1,29.78,SW,217,0.0,3.0,34,0.00,,---,0.01,VWS V14.01,2013-05-15 01:59:00,
2013-05-14 21:00:00,83.5,52.2,29.77,SW,217,0.0,8.0,34,0.00,,---,0.01,VWS V14.01,2013-05-15 02:00:00,
2013-05-14 21:04:00,83.2,51.9,29.78,SW,229,4.0,5.0,34,0.00,,---,0.01,VWS V14.01,2013-05-15 02:04:00,
2013-05-14 21:09:00,82.9,51.7,29.78,SW,236,7.0,10.0,34,0.00,,---,0.01,VWS V14.01,2013-05-15 02:09:00,
2013-05-14 21:10:00,82.9,51.7,29.78,SW,229,7.0,7.0,34,0.00,,---,0.01,VWS V14.01,2013-05-15 02:10:00,
2013-05-14 21:14:00,82.6,51.4,29.78,SW,221,5.0,15.0,34,0.00,,---,0.01,VWS V14.01,2013-05-15 02:14:00,
2013-05-14 21:19:00,82.4,52.0,29.78,WSW,252,1.0,3.0,35,0.00,,---,0.01,VWS V14.01,2013-05-15 02:19:00,
2013-05-14 21:20:00,82.5,51.3,29.78,WSW,253,3.0,15.0,34,0.00,,---,0.01,VWS V14.01,2013-05-15 02:20:00,
2013-05-14 21:24:00,82.3,51.9,29.78,SSW,211,2.0,7.0,35,0.00,,---,0.01,VWS V14.01,2013-05-15 02:24:00,
2013-05-14 21:29:00,82.1,51.8,29.79,SSW,200,0.0,3.0,35,0.00,,---,0.01,VWS V14.01,2013-05-15 02:29:00,
2013-05-14 21:30:00,82.1,51.0,29.79,SSW,200,3.0,10.0,34,0.00,,---,0.01,VWS V14.01,2013-05-15 02:30:00,
2013-05-14 21:34:00,81.9,50.8,29.79,SW,221,1.0,9.0,34,0.00,,---,0.01,VWS V14.01,2013-05-15 02:34:00,
2013-05-14 21:39:00,81.8,50.7,29.79,SW,218,2.0,7.0,34,0.00,,---,0.01,VWS V14.01,2013-05-15 02:39:00,
2013-05-14 21:40:00,81.8,50.7,29.79,SSW,209,5.0,14.0,34,0.00,,---,0.01,VWS V14.01,2013-05-15 02:40:00,
2013-05-14 21:44:00,81.7,50.6,29.80,SW,230,3.0,14.0,34,0.00,,---,0.01,VWS V14.01,2013-05-15 02:44:00,
2013-05-14 21:49:00,81.5,50.5,29.80,SW,231,3.0,10.0,34,0.00,,---,0.01,VWS V14.01,2013-05-15 02:49:00,
2013-05-14 21:50:00,81.6,50.5,29.80,SSW,212,10.0,14.0,34,0.00,,---,0.01,VWS V14.01,2013-05-15 02:50:00,
2013-05-14 21:54:00,81.3,50.3,29.80,SE,146,7.0,10.0,34,0.00,,---,0.01,VWS V14.01,2013-05-15 02:54:00,
2013-05-14 21:59:00,81.2,51.0,29.80,South,173,7.0,7.0,35,0.00,,---,0.01,VWS V14.01,2013-05-15 02:59:00,
2013-05-14 22:00:00,81.2,50.2,29.80,SSW,197,1.0,10.0,34,0.00,,---,0.01,VWS V14.01,2013-05-15 03:00:00,
2013-05-14 22:04:00,81.0,50.8,29.80,SSW,200,2.0,8.0,35,0.00,,---,0.01,VWS V14.01,2013-05-15 03:04:00,
2013-05-14 22:09:00,80.8,50.6,29.80,SSW,193,0.0,8.0,35,0.00,,---,0.01,VWS V14.01,2013-05-15 03:09:00,
2013-05-14 22:10:00,80.9,50.7,29.80,WSW,240,3.0,8.0,35,0.00,,---,0.01,VWS V14.01,2013-05-15 03:10:00,
2013-05-14 22:15:00,80.6,50.5,29.80,SSW,209,1.0,8.0,35,0.00,,---,0.01,VWS V14.01,2013-05-15 03:15:00,
2013-05-14 22:20:00,80.4,50.3,29.80,SSW,206,4.0,13.0,35,0.00,,---,0.01,VWS V14.01,2013-05-15 03:20:00,
2013-05-14 22:25:00,80.3,50.9,29.80,South,188,1.0,13.0,36,0.00,,---,0.01,VWS V14.01,2013-05-15 03:25:00,
2013-05-14 22:30:00,80.1,51.5,29.81,SSW,197,5.0,5.0,37,0.00,,---,0.01,VWS V14.01,2013-05-15 03:30:00,
2013-05-14 22:35:00,79.9,51.3,29.81,SW,230,3.0,6.0,37,0.00,,---,0.01,VWS V14.01,2013-05-15 03:35:00,
2013-05-14 22:40:00,79.7,51.9,29.81,WSW,242,5.0,7.0,38,0.00,,---,0.01,VWS V14.01,2013-05-15 03:40:00,
2013-05-14 22:45:00,79.5,51.7,29.81,WSW,245,8.0,10.0,38,0.00,,---,0.01,VWS V14.01,2013-05-15 03:45:00,
2013-05-14 22:50:00,79.4,52.3,29.81,SSW,192,6.0,10.0,39,0.00,,---,0.01,VWS V14.01,2013-05-15 03:50:00,
2013-05-14 22:55:00,79.2,52.1,29.81,SSW,207,0.0,10.0,39,0.00,,---,0.01,VWS V14.01,2013-05-15 03:55:00,
2013-05-14 23:00:00,79.0,52.6,29.81,SW,227,1.0,14.0,40,0.00,,---,0.01,VWS V14.01,2013-05-15 04:00:00,
2013-05-14 23:01:00,79.0,52.6,29.81,WSW,242,1.0,14.0,40,0.00,,---,0.01,VWS V14.01,2013-05-15 04:01:00,
2013-05-14 23:06:00,78.9,52.5,29.81,SW,215,1.0,14.0,40,0.00,,---,0.01,VWS V14.01,2013-05-15 04:06:00,
2013-05-14 23:10:00,78.8,52.5,29.81,WSW,241,3.0,14.0,40,0.00,,---,0.01,VWS V14.01,2013-05-15 04:10:00,
2013-05-14 23:11:00,78.8,53.1,29.81,South,177,1.0,4.0,41,0.00,,---,0.01,VWS V14.01,2013-05-15 04:11:00,
2013-05-14 23:16:00,78.7,53.0,29.81,SW,234,2.0,11.0,41,0.00,,---,0.01,VWS V14.01,2013-05-15 04:16:00,
2013-05-14 23:20:00,78.7,53.0,29.81,South,181,2.0,11.0,41,0.00,,---,0.01,VWS V14.01,2013-05-15 04:20:00,
2013-05-14 23:21:00,78.6,53.0,29.81,South,174,2.0,10.0,41,0.00,,---,0.01,VWS V14.01,2013-05-15 04:21:00,
2013-05-14 23:26:00,78.6,53.6,29.80,SW,224,1.0,10.0,42,0.00,,---,0.01,VWS V14.01,2013-05-15 04:26:00,
2013-05-14 23:30:00,78.6,53.6,29.80,SSW,212,3.0,10.0,42,0.00,,---,0.01,VWS V14.01,2013-05-15 04:30:00,
2013-05-14 23:31:00,78.5,53.5,29.80,SSW,192,1.0,8.0,42,0.00,,---,0.01,VWS V14.01,2013-05-15 04:31:00,
2013-05-14 23:36:00,78.5,53.5,29.80,SW,217,2.0,8.0,42,0.00,,---,0.01,VWS V14.01,2013-05-15 04:36:00,
2013-05-14 23:40:00,78.5,54.2,29.81,South,175,8.0,8.0,43,0.00,,---,0.01,VWS V14.01,2013-05-15 04:40:00,
2013-05-14 23:41:00,78.5,54.2,29.80,WSW,247,5.0,11.0,43,0.00,,---,0.01,VWS V14.01,2013-05-15 04:41:00,
2013-05-14 23:46:00,78.4,54.1,29.81,SW,216,5.0,12.0,43,0.00,,---,0.01,VWS V14.01,2013-05-15 04:46:00,
2013-05-14 23:50:00,78.4,54.1,29.81,SW,227,2.0,12.0,43,0.00,,---,0.01,VWS V14.01,2013-05-15 04:50:00,
2013-05-14 23:51:00,78.4,54.1,29.81,SW,222,2.0,7.0,43,0.00,,---,0.01,VWS V14.01,2013-05-15 04:51:00,
2013-05-14 23:56:00,78.3,54.6,29.81,SSE,155,2.0,7.0,44,0.00,,---,0.01,VWS V14.01,2013-05-15 04:56:00,